| time (UTC) | temp C | wind direction | speed KPH | gust KPH | rain 1hr cm | rain 24hr cm | rain mn cm | humidity % | barometer mb |
| 20260510175037 | 20 | 85 | 1.6 | 8.0 | 0.00 | 0.00 | 0.00 | 47 | 1022.3 |
| 20260510174037 | 20 | 36 | 4.8 | 9.7 | 0.00 | 0.00 | 0.00 | 46 | 1022.3 |
| 20260510173034 | 20 | 50 | 3.2 | 12.9 | 0.00 | 0.00 | 0.00 | 45 | 1022.2 |
| 20260510172053 | 20 | 113 | 4.8 | 16.1 | 0.00 | 0.00 | 0.00 | 47 | 1022.0 |
| 20260510171112 | 21 | 14 | 1.6 | 14.5 | 0.00 | 0.00 | 0.00 | 49 | 1021.8 |
| 20260510170051 | 21 | 354 | 1.6 | 9.7 | 0.00 | 0.00 | 0.00 | 53 | 1021.7 |
| 20260510165024 | 21 | 8 | 3.2 | 9.7 | 0.00 | 0.00 | 0.00 | 51 | 1021.8 |
| 20260510164041 | 20 | 266 | 1.6 | 8.0 | 0.00 | 0.00 | 0.00 | 52 | 1021.8 |
| 20260510163038 | 20 | 33 | 3.2 | 12.9 | 0.00 | 0.00 | 0.00 | 53 | 1021.6 |
| 20260510162034 | 19 | 61 | 4.8 | 11.3 | 0.00 | 0.00 | 0.00 | 50 | 1021.6 |
| 20260510161100 | 18 | 351 | 4.8 | 9.7 | 0.00 | 0.00 | 0.00 | 57 | 1021.5 |
| 20260510160027 | 18 | 359 | 3.2 | 9.7 | 0.00 | 0.00 | 0.00 | 56 | 1021.3 |
| 20260510155056 | 17 | 27 | 1.6 | 9.7 | 0.00 | 0.00 | 0.00 | 57 | 1021.3 |
| 20260510154026 | 17 | 342 | 3.2 | 9.7 | 0.00 | 0.00 | 0.00 | 62 | 1021.0 |
| 20260510153054 | 17 | 356 | 1.6 | 11.3 | 0.00 | 0.00 | 0.00 | 62 | 1020.6 |
| 20260510152055 | 17 | 342 | 3.2 | 14.5 | 0.00 | 0.00 | 0.00 | 64 | 1020.6 |
| 20260510151053 | 17 | 337 | 3.2 | 11.3 | 0.00 | 0.00 | 0.00 | 69 | 1020.4 |
| 20260510150034 | 17 | 66 | 3.2 | 8.0 | 0.00 | 0.00 | 0.00 | 72 | 1020.5 |
| 20260510145059 | 16 | 46 | 1.6 | 9.7 | 0.00 | 0.00 | 0.00 | 72 | 1020.6 |
| 20260510144044 | 16 | 5 | 1.6 | 12.9 | 0.00 | 0.00 | 0.00 | 72 | 1020.6 |
| 20260510143052 | 16 | 31 | 3.2 | 11.3 | 0.00 | 0.00 | 0.00 | 73 | 1020.9 |
| 20260510142039 | 16 | 46 | 1.6 | 6.4 | 0.00 | 0.00 | 0.00 | 74 | 1021.0 |
| 20260510141040 | 16 | 343 | 0.0 | 1.6 | 0.00 | 0.00 | 0.00 | 75 | 1020.9 |
| 20260510140056 | 16 | 9 | 0.0 | 8.0 | 0.00 | 0.03 | 0.00 | 74 | 1020.6 |
| 20260510135037 | 16 | 345 | 1.6 | 9.7 | 0.00 | 0.03 | 0.00 | 74 | 1020.5 |
| 20260510134041 | 16 | 47 | 1.6 | 8.0 | 0.00 | 0.03 | 0.00 | 74 | 1020.3 |
| 20260510133056 | 16 | 19 | 1.6 | 6.4 | 0.00 | 0.03 | 0.00 | 75 | 1020.3 |
| 20260510132048 | 16 | 350 | 0.0 | 9.7 | 0.00 | 0.03 | 0.00 | 76 | 1020.1 |
| 20260510131033 | 16 | 72 | 1.6 | 9.7 | 0.00 | 0.03 | 0.00 | 76 | 1020.1 |
| 20260510130049 | 16 | 22 | 3.2 | 9.7 | 0.00 | 0.03 | 0.00 | 78 | 1019.7 |
| 20260510125053 | 16 | 123 | 1.6 | 8.0 | 0.00 | 0.03 | 0.00 | 79 | 1019.5 |
| 20260510124035 | 16 | 65 | 0.0 | 3.2 | 0.00 | 0.03 | 0.00 | 80 | 1019.2 |
| 20260510123025 | 15 | 59 | 0.0 | 6.4 | 0.00 | 0.03 | 0.00 | 81 | 1019.2 |
| 20260510122034 | 15 | 357 | 0.0 | 6.4 | 0.00 | 0.03 | 0.00 | 81 | 1019.1 |
| 20260510121049 | 15 | 37 | 0.0 | 1.6 | 0.00 | 0.03 | 0.00 | 81 | 1018.6 |
| 20260510120030 | 15 | 164 | 0.0 | 1.6 | 0.00 | 0.03 | 0.00 | 82 | 1018.3 |
| 20260510115030 | 15 | 165 | 0.0 | 1.6 | 0.00 | 0.03 | 0.00 | 82 | 1018.4 |
| 20260510114027 | 15 | 51 | 0.0 | 6.4 | 0.00 | 0.03 | 0.00 | 83 | 1018.0 |
| 20260510113056 | 14 | 66 | 0.0 | 8.0 | 0.00 | 0.03 | 0.00 | 84 | 1017.9 |
| 20260510112119 | 14 | 343 | 0.0 | 1.6 | 0.00 | 0.03 | 0.00 | 86 | 1017.7 |
| 20260510111119 | 14 | 343 | 0.0 | 0.0 | 0.00 | 0.03 | 0.00 | 85 | 1017.6 |
| 20260510110043 | 14 | 343 | 0.0 | 1.6 | 0.00 | 0.03 | 0.00 | 85 | 1017.3 |
| 20260510105049 | 14 | 343 | 0.0 | 1.6 | 0.00 | 0.03 | 0.00 | 86 | 1017.1 |
| 20260510104050 | 14 | 343 | 0.0 | 0.0 | 0.00 | 0.03 | 0.00 | 85 | 1017.0 |
| 20260510103053 | 14 | 343 | 0.0 | 0.0 | 0.00 | 0.03 | 0.00 | 84 | 1016.8 |
| 20260510102039 | 15 | 343 | 0.0 | 0.0 | 0.00 | 0.03 | 0.00 | 84 | 1016.9 |
| 20260510101028 | 15 | 343 | 0.0 | 1.6 | 0.00 | 0.03 | 0.00 | 84 | 1017.0 |
| 20260510100041 | 15 | 343 | 0.0 | 3.2 | 0.00 | 0.03 | 0.00 | 83 | 1017.0 |
| 20260510095032 | 15 | 343 | 0.0 | 0.0 | 0.00 | 0.03 | 0.00 | 81 | 1016.9 |
| 20260510094023 | 15 | 343 | 0.0 | 0.0 | 0.00 | 0.03 | 0.00 | 81 | 1016.7 |
| 20260510093030 | 15 | 343 | 0.0 | 0.0 | 0.00 | 0.03 | 0.00 | 79 | 1016.5 |
| 20260510092105 | 15 | 343 | 0.0 | 1.6 | 0.00 | 0.03 | 0.00 | 78 | 1016.3 |
| 20260510091110 | 15 | 343 | 0.0 | 1.6 | 0.00 | 0.03 | 0.00 | 78 | 1016.1 |
| 20260510090048 | 16 | 343 | 0.0 | 0.0 | 0.00 | 0.03 | 0.00 | 77 | 1016.0 |
| 20260510085053 | 16 | 343 | 0.0 | 0.0 | 0.00 | 0.03 | 0.00 | 76 | 1015.9 |
| 20260510084031 | 16 | 343 | 0.0 | 0.0 | 0.00 | 0.03 | 0.00 | 74 | 1015.8 |
| 20260510083033 | 16 | 343 | 0.0 | 1.6 | 0.00 | 0.03 | 0.00 | 75 | 1015.8 |
| 20260510082029 | 16 | 343 | 0.0 | 0.0 | 0.00 | 0.03 | 0.00 | 73 | 1015.5 |
| 20260510081037 | 17 | 343 | 0.0 | 0.0 | 0.00 | 0.03 | 0.00 | 72 | 1015.6 |
| 20260510080056 | 17 | 343 | 0.0 | 0.0 | 0.00 | 0.03 | 0.00 | 71 | 1015.6 |
| 20260510075026 | 17 | 343 | 0.0 | 0.0 | 0.00 | 0.03 | 0.00 | 71 | 1015.8 |
| 20260510074049 | 17 | 343 | 0.0 | 1.6 | 0.00 | 0.03 | 0.00 | 70 | 1015.7 |
| 20260510073045 | 18 | 343 | 0.0 | 0.0 | 0.00 | 0.03 | 0.00 | 70 | 1015.7 |
| 20260510072048 | 18 | 343 | 0.0 | 3.2 | 0.00 | 0.03 | 0.00 | 68 | 1015.8 |
| 20260510071030 | 17 | 343 | 1.6 | 3.2 | 0.00 | 0.03 | 0.00 | 70 | 1015.6 |
| 20260510070031 | 16 | 134 | 1.6 | 3.2 | 0.00 | 0.03 | 0.00 | 74 | 1015.1 |
| 20260510065052 | 16 | 5 | 3.2 | 4.8 | 0.00 | 0.03 | 0.00 | 76 | 1014.6 |
| 20260510064027 | 16 | 141 | 3.2 | 8.0 | 0.00 | 0.03 | 0.00 | 76 | 1014.1 |
| 20260510063115 | 16 | 92 | 1.6 | 6.4 | 0.00 | 0.03 | 0.00 | 79 | 1014.9 |
| 20260510062034 | 16 | 95 | 0.0 | 6.4 | 0.00 | 0.03 | 0.00 | 82 | 1015.0 |
| 20260510061100 | 16 | 117 | 0.0 | 6.4 | 0.00 | 0.03 | 0.00 | 83 | 1015.2 |
| 20260510060044 | 16 | 140 | 3.2 | 6.4 | 0.00 | 0.03 | 0.00 | 84 | 1015.2 |
| 20260510055045 | 16 | 209 | 1.6 | 3.2 | 0.00 | 0.03 | 0.00 | 83 | 1015.4 |
| 20260510054047 | 16 | 209 | 0.0 | 1.6 | 0.00 | 0.03 | 0.00 | 82 | 1015.6 |
| 20260510053041 | 16 | 209 | 0.0 | 3.2 | 0.00 | 0.03 | 0.00 | 82 | 1015.6 |
| 20260510052032 | 16 | 209 | 0.0 | 0.0 | 0.00 | 0.03 | 0.00 | 83 | 1015.7 |
| 20260510051056 | 16 | 209 | 0.0 | 0.0 | 0.00 | 0.03 | 0.00 | 83 | 1015.8 |
| 20260510050040 | 16 | 209 | 0.0 | 1.6 | 0.00 | 0.03 | 0.03 | 83 | 1015.7 |
| 20260510045033 | 16 | 209 | 0.0 | 0.0 | 0.00 | 0.03 | 0.03 | 83 | 1015.5 |
| 20260510044041 | 16 | 209 | 0.0 | 3.2 | 0.00 | 0.03 | 0.03 | 83 | 1015.4 |
| 20260510043026 | 16 | 209 | 0.0 | 1.6 | 0.00 | 0.03 | 0.03 | 83 | 1015.3 |
| 20260510042038 | 16 | 209 | 0.0 | 1.6 | 0.00 | 0.03 | 0.03 | 83 | 1015.4 |
| 20260510041048 | 16 | 209 | 0.0 | 0.0 | 0.00 | 0.03 | 0.03 | 82 | 1015.5 |
| 20260510040041 | 16 | 209 | 0.0 | 1.6 | 0.00 | 0.03 | 0.03 | 82 | 1015.5 |
| 20260510035031 | 16 | 209 | 0.0 | 1.6 | 0.00 | 0.03 | 0.03 | 81 | 1015.3 |
| 20260510034040 | 16 | 209 | 0.0 | 0.0 | 0.00 | 0.03 | 0.03 | 80 | 1015.2 |
| 20260510033058 | 16 | 209 | 0.0 | 0.0 | 0.00 | 0.03 | 0.03 | 79 | 1015.0 |
| 20260510032034 | 16 | 209 | 0.0 | 0.0 | 0.00 | 0.03 | 0.03 | 79 | 1014.7 |
| 20260510031042 | 17 | 209 | 0.0 | 0.0 | 0.00 | 0.03 | 0.03 | 78 | 1014.6 |
| 20260510030046 | 17 | 209 | 0.0 | 0.0 | 0.00 | 0.03 | 0.03 | 77 | 1014.6 |
| 20260510025048 | 17 | 209 | 0.0 | 0.0 | 0.00 | 0.03 | 0.03 | 77 | 1014.4 |
| 20260510024036 | 17 | 209 | 0.0 | 0.0 | 0.00 | 0.03 | 0.03 | 75 | 1014.3 |
| 20260510023034 | 18 | 209 | 0.0 | 0.0 | 0.00 | 0.03 | 0.03 | 74 | 1014.2 |
| 20260510022033 | 18 | 209 | 0.0 | 0.0 | 0.00 | 0.03 | 0.03 | 72 | 1013.8 |
| 20260510021036 | 18 | 209 | 0.0 | 0.0 | 0.00 | 0.03 | 0.03 | 70 | 1013.6 |
| 20260510020052 | 18 | 209 | 0.0 | 0.0 | 0.00 | 0.03 | 0.03 | 68 | 1013.2 |
| 20260510015047 | 19 | 209 | 0.0 | 0.0 | 0.00 | 0.03 | 0.03 | 65 | 1013.0 |
| 20260510014042 | 20 | 209 | 0.0 | 0.0 | 0.00 | 0.03 | 0.03 | 62 | 1012.9 |
| 20260510013031 | 20 | 209 | 0.0 | 0.0 | 0.00 | 0.03 | 0.03 | 62 | 1012.6 |
| 20260510012030 | 21 | 209 | 0.0 | 0.0 | 0.00 | 0.03 | 0.03 | 59 | 1012.6 |
| 20260510011053 | 21 | 209 | 0.0 | 0.0 | 0.00 | 0.03 | 0.03 | 59 | 1012.5 |
| 20260510010042 | 22 | 209 | 0.0 | 0.0 | 0.00 | 0.08 | 0.03 | 55 | 1012.4 |
| 20260510005039 | 22 | 209 | 0.0 | 0.0 | 0.00 | 0.08 | 0.03 | 54 | 1012.2 |
| 20260510004038 | 23 | 209 | 0.0 | 0.0 | 0.00 | 0.08 | 0.03 | 51 | 1012.2 |
| 20260510003044 | 24 | 209 | 0.0 | 0.0 | 0.00 | 0.08 | 0.03 | 48 | 1012.2 |
| 20260510002046 | 25 | 209 | 0.0 | 3.2 | 0.00 | 0.08 | 0.03 | 46 | 1012.1 |
| 20260510001038 | 25 | 202 | 0.0 | 3.2 | 0.00 | 0.08 | 0.03 | 43 | 1012.2 |
| 20260510000050 | 25 | 202 | 0.0 | 6.4 | 0.00 | 0.10 | 0.03 | 40 | 1012.1 |
| 20260509235053 | 25 | 180 | 0.0 | 3.2 | 0.00 | 0.10 | 0.03 | 39 | 1012.2 |
| 20260509234046 | 26 | 290 | 0.0 | 6.4 | 0.00 | 0.10 | 0.03 | 37 | 1012.2 |
| 20260509233046 | 26 | 247 | 1.6 | 6.4 | 0.00 | 0.10 | 0.03 | 35 | 1012.3 |
| 20260509232054 | 26 | 234 | 0.0 | 3.2 | 0.00 | 0.10 | 0.03 | 34 | 1012.3 |
| 20260509231050 | 26 | 312 | 0.0 | 1.6 | 0.00 | 0.10 | 0.03 | 34 | 1012.3 |
| 20260509230031 | 26 | 312 | 1.6 | 3.2 | 0.00 | 0.13 | 0.03 | 33 | 1012.4 |
| 20260509225052 | 26 | 316 | 1.6 | 8.0 | 0.00 | 0.13 | 0.03 | 33 | 1012.2 |
| 20260509224036 | 27 | 233 | 3.2 | 8.0 | 0.00 | 0.13 | 0.03 | 35 | 1012.2 |
| 20260509223029 | 27 | 244 | 3.2 | 8.0 | 0.00 | 0.13 | 0.03 | 34 | 1012.3 |
| 20260509222048 | 26 | 199 | 1.6 | 3.2 | 0.00 | 0.13 | 0.03 | 32 | 1012.3 |
| 20260509221055 | 26 | 197 | 0.0 | 8.0 | 0.00 | 0.13 | 0.03 | 31 | 1012.4 |
| 20260509220044 | 27 | 144 | 3.2 | 9.7 | 0.00 | 0.13 | 0.03 | 30 | 1012.5 |
| 20260509215053 | 27 | 207 | 3.2 | 9.7 | 0.00 | 0.13 | 0.03 | 31 | 1012.4 |
| 20260509214054 | 27 | 234 | 3.2 | 11.3 | 0.00 | 0.13 | 0.03 | 35 | 1012.4 |
| 20260509213047 | 27 | 321 | 3.2 | 9.7 | 0.00 | 0.13 | 0.03 | 32 | 1012.4 |
| 20260509212031 | 27 | 223 | 1.6 | 11.3 | 0.00 | 0.13 | 0.03 | 36 | 1012.5 |
| 20260509211049 | 27 | 238 | 0.0 | 11.3 | 0.00 | 0.13 | 0.03 | 29 | 1012.6 |
| 20260509210050 | 27 | 259 | 3.2 | 9.7 | 0.00 | 0.13 | 0.03 | 32 | 1012.8 |
| 20260509205033 | 27 | 337 | 3.2 | 8.0 | 0.00 | 0.13 | 0.03 | 31 | 1012.8 |
| 20260509204030 | 27 | 244 | 3.2 | 9.7 | 0.00 | 0.13 | 0.03 | 32 | 1012.9 |
| 20260509203052 | 27 | 299 | 3.2 | 12.9 | 0.00 | 0.13 | 0.03 | 33 | 1013.0 |
| 20260509202022 | 27 | 115 | 3.2 | 8.0 | 0.00 | 0.13 | 0.03 | 36 | 1013.0 |
| 20260509201039 | 27 | 242 | 1.6 | 11.3 | 0.00 | 0.13 | 0.03 | 35 | 1013.2 |
| 20260509200120 | 27 | 283 | 1.6 | 9.7 | 0.00 | 0.13 | 0.03 | 36 | 1013.1 |
| 20260509195050 | 27 | 138 | 1.6 | 11.3 | 0.00 | 0.13 | 0.03 | 40 | 1013.2 |
| 20260509194043 | 27 | 198 | 1.6 | 8.0 | 0.00 | 0.13 | 0.03 | 38 | 1013.2 |
| 20260509193040 | 27 | 273 | 4.8 | 16.1 | 0.00 | 0.13 | 0.03 | 35 | 1013.2 |
| 20260509192107 | 27 | 265 | 3.2 | 11.3 | 0.00 | 0.13 | 0.03 | 37 | 1013.5 |
| 20260509191056 | 26 | 316 | 1.6 | 12.9 | 0.00 | 0.13 | 0.03 | 40 | 1013.5 |
| 20260509190052 | 27 | 212 | 4.8 | 9.7 | 0.00 | 0.13 | 0.03 | 40 | 1013.7 |
| 20260509185052 | 26 | 238 | 3.2 | 12.9 | 0.00 | 0.13 | 0.03 | 34 | 1013.6 |
| 20260509184029 | 26 | 351 | 0.0 | 11.3 | 0.00 | 0.13 | 0.03 | 39 | 1013.7 |
| 20260509183050 | 26 | 231 | 6.4 | 11.3 | 0.00 | 0.13 | 0.03 | 37 | 1013.7 |
| 20260509182048 | 27 | 232 | 3.2 | 8.0 | 0.00 | 0.13 | 0.03 | 36 | 1013.8 |
| 20260509181032 | 26 | 234 | 1.6 | 9.7 | 0.00 | 0.13 | 0.03 | 33 | 1013.8 |
| 20260509180027 | 26 | 299 | 1.6 | 9.7 | 0.00 | 0.13 | 0.03 | 41 | 1013.8 |